Location: Rancho Del Sol Observatory
(38.7214°N, 120.6350°W)
Time: 14:45:42
(UTC-08:00)

A-11 Canister half - Pass Details

Date: 31 January 2020
Orbit: 1517 x 1683 km, 47.2° (Epoch: 24 February)

Event Time Altitude Azimuth Distance (km) Brightness Sun altitude
Rises 19:50:35 0° 201° (SSW) 4,831 11.9 -29.0°
Reaches altitude 10° 19:54:05 10° 193° (SSW) 3,823 11.2 -29.7°
Enters shadow 20:00:32 32° 155° (SSE) 2,452 9.8 -30.9°
